Location: Brompton
(51.4000°N, 0.5333°E)
Time: 10:58:32
(UTC+00:00)

Cosmos 1898 Rocket - Pass Details

Date: 26 September 2021
Orbit: 752 x 784 km, 74.0° (Epoch: 17 October)

Event Time Altitude Azimuth Distance (km) Brightness Sun altitude
Exits shadow 19:10:16 12° 66° (ENE) 2,138 5.4 -13.8°
Drops below altitude 10° 19:11:07 10° 58° (ENE) 2,312 5.6 -13.9°
Sets 19:14:22 0° 37° (NE) 3,251 6.5 -14.4°
